This is the latest recevied weather packets stored in our database for station/object W2SRH. If no packets are shown the sender has not sent any weather packets the latest 10 day(s).
| Time | Temp. | Humidity | Pressure | Rain* | Wind** | Luminosity | Snow |
|---|---|---|---|---|---|---|---|
| 1777741143 | 13.89° C | 42% | 1003.7 hPa | 0 mm | 0.89 m/s, 316° | - | - |
| 1777740545 | 13.33° C | 45% | 1003.8 hPa | 0 mm | 0.89 m/s, 6° | - | - |
| 1777739948 | 13.33° C | 46% | 1004 hPa | 0 mm | 1.34 m/s, 349° | - | - |
| 1777739344 | 13.33° C | 48% | 1004.2 hPa | 0 mm | 1.34 m/s, 347° | - | - |
| 1777738749 | 13.33° C | 49% | 1004.3 hPa | 0 mm | 0.89 m/s, 331° | - | - |
| 1777737544 | 12.78° C | 54% | 1004.3 hPa | 0 mm | 1.34 m/s, 303° | - | - |
| 1777736954 | 12.78° C | 55% | 1004.1 hPa | 0 mm | 0.89 m/s, 342° | - | - |
| 1777736346 | 12.22° C | 55% | 1004.1 hPa | 0 mm | 0.89 m/s, 322° | - | - |
| 1777735745 | 12.78° C | 55% | 1004.2 hPa | 0 mm | 0.89 m/s, 1° | - | - |
| 1777735143 | 12.78° C | 54% | 1004.2 hPa | 0 mm | 1.34 m/s, 328° | - | - |
| 1777734543 | 12.22° C | 58% | 1004.1 hPa | 0 mm | 1.34 m/s, 325° | - | - |
| 1777733944 | 11.67° C | 60% | 1004.2 hPa | 0 mm | 1.79 m/s, 332° | - | - |
| 1777733344 | 11.11° C | 62% | 1004.1 hPa | 0 mm | 2.24 m/s, 314° | - | - |
| 1777732147 | 11.67° C | 64% | 1004.2 hPa | 0 mm | 1.79 m/s, 336° | - | - |
| 1777731544 | 11.11° C | 65% | 1004.1 hPa | 0 mm | 1.34 m/s, 346° | - | - |
| 1777730945 | 11.11° C | 66% | 1004.1 hPa | 0 mm | 1.34 m/s, 330° | - | - |
| 1777729745 | 11.67° C | 63% | 1004.1 hPa | 0 mm | 1.34 m/s, 313° | - | - |
| 1777729144 | 11.67° C | 63% | 1004.3 hPa | 0 mm | 1.34 m/s, 344° | - | - |
| 1777728544 | 11.11° C | 67% | 1004.2 hPa | 0 mm | 0.89 m/s, 4° | - | - |
| 1777727945 | 11.11° C | 67% | 1004.2 hPa | 0 mm | 1.34 m/s, 356° | - | - |
| 1777727344 | 11.67° C | 67% | 1004.1 hPa | 0 mm | 1.79 m/s, 322° | - | - |
| 1777726744 | 11.11° C | 70% | 1004.3 hPa | 0 mm | 0.89 m/s, 10° | - | - |
| 1777726143 | 11.11° C | 71% | 1004.2 hPa | 0 mm | 1.34 m/s, 18° | - | - |
| 1777725544 | 11.11° C | 72% | 1004.2 hPa | 0 mm | 1.79 m/s, 308° | - | - |
| 1777724944 | 11.11° C | 72% | 1004.1 hPa | 0 mm | 1.34 m/s, 298° | - | - |
* Rain latest hour (hover to see other rain measurements)
** Current wind speed in m/s (hover to see current wind gust speed)